Time,TemperatureF,DewpointF,PressureIn,WindDirection,WindDirectionDegrees,WindSpeedMPH,WindSpeedGustMPH,Humidity,HourlyPrecipIn,Conditions,Clouds,dailyrainin,SolarRadiationWatts/m^2,SoftwareType,DateUTC
2013-12-19 00:07:00,16.7,14.8,29.97,SSE,158,0.0,5.0,92,0.00,OVC,FEW,0.00,0.0,WeatherDisplay:10.37,2013-12-19 05:07:00,
2013-12-19 00:17:00,16.7,14.8,29.97,SSW,200,1.0,7.0,92,0.00,OVC,FEW,0.00,0.0,WeatherDisplay:10.37,2013-12-19 05:17:00,
2013-12-19 00:22:00,16.7,14.8,29.97,SW,216,1.0,3.0,92,0.00,OVC,FEW,0.00,0.0,WeatherDisplay:10.37,2013-12-19 05:22:00,
2013-12-19 00:27:00,16.7,14.8,29.97,SSW,193,1.0,5.0,92,0.00,OVC,FEW,0.00,0.0,WeatherDisplay:10.37,2013-12-19 05:27:00,
2013-12-19 00:32:00,16.7,14.8,29.97,SSW,196,0.0,3.0,92,0.00,OVC,FEW,0.00,0.0,WeatherDisplay:10.37,2013-12-19 05:32:00,
2013-12-19 00:37:00,16.7,14.8,29.97,SSE,158,1.0,5.0,92,0.00,OVC,FEW,0.00,0.0,WeatherDisplay:10.37,2013-12-19 05:37:00,
2013-12-19 00:42:00,16.7,14.8,29.97,SE,126,0.0,2.0,92,0.00,OVC,FEW,0.00,0.0,WeatherDisplay:10.37,2013-12-19 05:42:00,
2013-12-19 00:47:00,16.7,14.8,29.97,WSW,249,1.0,5.0,92,0.00,OVC,FEW,0.00,0.0,WeatherDisplay:10.37,2013-12-19 05:47:00,
2013-12-19 00:52:00,16.8,14.8,29.97,WNW,282,1.0,3.0,92,0.00,OVC,FEW,0.00,0.0,WeatherDisplay:10.37,2013-12-19 05:52:00,
2013-12-19 00:57:00,16.8,14.9,29.97,WNW,302,1.0,4.0,92,0.00,OVC,FEW,0.00,0.0,WeatherDisplay:10.37,2013-12-19 05:57:00,
2013-12-19 01:07:00,16.9,14.9,29.97,WNW,282,1.0,5.0,92,0.00,OVC,FEW,0.00,0.0,WeatherDisplay:10.37,2013-12-19 06:07:00,
2013-12-19 01:17:00,16.9,15.0,29.97,SSW,210,1.0,4.0,92,0.00,OVC,FEW,0.00,0.0,WeatherDisplay:10.37,2013-12-19 06:17:00,
2013-12-19 01:22:00,16.9,15.0,29.96,WSW,237,0.0,4.0,92,0.00,OVC,FEW,0.00,0.0,WeatherDisplay:10.37,2013-12-19 06:22:00,
2013-12-19 01:27:00,16.9,15.0,29.97,SW,220,1.0,4.0,92,0.00,OVC,FEW,0.00,0.0,WeatherDisplay:10.37,2013-12-19 06:27:00,
2013-12-19 01:32:00,16.9,15.0,29.97,West,265,1.0,3.0,92,0.00,OVC,FEW,0.00,0.0,WeatherDisplay:10.37,2013-12-19 06:32:00,
2013-12-19 01:37:00,16.9,15.0,29.97,SW,233,1.0,3.0,92,0.00,OVC,FEW,0.00,0.0,WeatherDisplay:10.37,2013-12-19 06:37:00,
2013-12-19 01:42:00,16.9,15.0,29.97,SE,145,0.0,3.0,92,0.00,OVC,FEW,0.00,0.0,WeatherDisplay:10.37,2013-12-19 06:42:00,
2013-12-19 01:47:00,16.9,15.2,29.97,SE,127,0.0,2.0,93,0.00,OVC,FEW,0.00,0.0,WeatherDisplay:10.37,2013-12-19 06:47:00,
2013-12-19 01:52:00,16.9,15.2,29.98,SE,130,0.0,3.0,93,0.00,OVC,FEW,0.00,0.0,WeatherDisplay:10.37,2013-12-19 06:52:00,
2013-12-19 01:57:00,16.9,15.2,29.98,South,171,0.0,3.0,93,0.00,OVC,FEW,0.00,0.0,WeatherDisplay:10.37,2013-12-19 06:57:00,
2013-12-19 02:07:00,16.9,15.2,29.98,SSE,158,0.0,3.0,93,0.00,OVC,FEW,0.00,0.0,WeatherDisplay:10.37,2013-12-19 07:07:00,
2013-12-19 02:17:00,17.0,15.3,29.98,SSW,199,1.0,11.0,93,0.00,OVC,FEW,0.00,0.0,WeatherDisplay:10.37,2013-12-19 07:17:00,
2013-12-19 02:22:00,17.0,15.3,29.98,SSW,208,0.0,12.0,93,0.00,OVC,FEW,0.00,0.0,WeatherDisplay:10.37,2013-12-19 07:22:00,
2013-12-19 02:27:00,17.0,15.3,29.98,WNW,288,0.0,5.0,93,0.00,OVC,FEW,0.00,0.0,WeatherDisplay:10.37,2013-12-19 07:27:00,
2013-12-19 02:32:00,17.0,15.3,29.98,West,262,0.0,3.0,93,0.00,OVC,FEW,0.00,0.0,WeatherDisplay:10.37,2013-12-19 07:32:00,
2013-12-19 02:37:00,17.0,15.6,29.99,SW,231,0.0,3.0,94,0.00,OVC,FEW,0.00,0.0,WeatherDisplay:10.37,2013-12-19 07:37:00,
2013-12-19 02:42:00,17.0,15.6,29.99,WSW,239,0.0,1.0,94,0.00,OVC,FEW,0.00,0.0,WeatherDisplay:10.37,2013-12-19 07:42:00,
2013-12-19 02:47:00,17.0,15.6,29.99,SSE,155,0.0,2.0,94,0.00,OVC,FEW,0.00,0.0,WeatherDisplay:10.37,2013-12-19 07:47:00,
2013-12-19 02:52:00,17.0,15.6,29.99,South,176,1.0,4.0,94,0.00,OVC,FEW,0.00,0.0,WeatherDisplay:10.37,2013-12-19 07:52:00,
2013-12-19 02:57:00,17.0,15.3,29.99,South,178,0.0,2.0,93,0.00,OVC,FEW,0.00,0.0,WeatherDisplay:10.37,2013-12-19 07:57:00,
2013-12-19 03:07:00,16.9,15.3,29.98,SSW,198,1.0,4.0,93,0.00,OVC,FEW,0.00,0.0,WeatherDisplay:10.37,2013-12-19 08:07:00,
2013-12-19 03:17:00,16.8,15.2,29.99,WSW,245,0.0,3.0,93,0.00,OVC,FEW,0.00,0.0,WeatherDisplay:10.37,2013-12-19 08:17:00,
2013-12-19 03:22:00,16.8,14.8,30.00,SW,216,0.0,4.0,92,0.00,OVC,FEW,0.00,0.0,WeatherDisplay:10.37,2013-12-19 08:22:00,
2013-12-19 03:27:00,16.7,14.8,30.00,SSW,195,1.0,2.0,92,0.00,OVC,FEW,0.00,0.0,WeatherDisplay:10.37,2013-12-19 08:27:00,
2013-12-19 03:32:00,16.6,14.7,29.99,SSW,207,2.0,9.0,92,0.00,OVC,FEW,0.00,0.0,WeatherDisplay:10.37,2013-12-19 08:32:00,
2013-12-19 03:37:00,16.6,14.7,29.99,NNW,346,1.0,4.0,92,0.00,OVC,FEW,0.00,0.0,WeatherDisplay:10.37,2013-12-19 08:37:00,
2013-12-19 03:42:00,16.5,14.6,30.00,West,260,0.0,6.0,92,0.00,OVC,FEW,0.00,0.0,WeatherDisplay:10.37,2013-12-19 08:42:00,
2013-12-19 03:47:00,16.5,14.6,30.00,West,274,1.0,7.0,92,0.00,OVC,FEW,0.00,0.0,WeatherDisplay:10.37,2013-12-19 08:47:00,
2013-12-19 03:52:00,16.5,14.6,29.99,NW,321,0.0,3.0,92,0.00,OVC,FEW,0.00,0.0,WeatherDisplay:10.37,2013-12-19 08:52:00,
2013-12-19 03:57:00,16.4,14.5,29.99,North,357,1.0,4.0,92,0.00,OVC,FEW,0.00,0.0,WeatherDisplay:10.37,2013-12-19 08:57:00,
2013-12-19 04:07:00,16.2,14.3,29.99,NNW,330,1.0,13.0,92,0.00,-SN,FEW,0.00,0.0,WeatherDisplay:10.37,2013-12-19 09:07:00,
2013-12-19 04:17:00,16.2,14.2,29.99,NNW,345,1.0,3.0,92,0.00,-SN,FEW,0.00,0.0,WeatherDisplay:10.37,2013-12-19 09:17:00,
2013-12-19 04:22:00,16.1,14.2,29.99,WNW,286,0.0,4.0,92,0.00,-SN,FEW,0.00,0.0,WeatherDisplay:10.37,2013-12-19 09:22:00,
2013-12-19 04:27:00,16.1,14.2,29.99,West,271,0.0,3.0,92,0.00,-SN,FEW,0.00,0.0,WeatherDisplay:10.37,2013-12-19 09:27:00,
2013-12-19 04:32:00,16.0,14.1,29.99,West,267,0.0,2.0,92,0.00,-SN,FEW,0.00,0.0,WeatherDisplay:10.37,2013-12-19 09:32:00,
2013-12-19 04:37:00,16.0,14.1,29.99,West,268,0.0,2.0,92,0.00,-SN,FEW,0.00,0.0,WeatherDisplay:10.37,2013-12-19 09:37:00,
2013-12-19 04:42:00,16.0,14.1,29.99,West,269,0.0,1.0,92,0.00,-SN,FEW,0.00,0.0,WeatherDisplay:10.37,2013-12-19 09:42:00,
2013-12-19 04:47:00,16.0,14.1,29.99,WNW,282,0.0,3.0,92,0.00,-SN,FEW,0.00,0.0,WeatherDisplay:10.37,2013-12-19 09:47:00,
2013-12-19 04:52:00,16.1,14.2,29.99,West,259,0.0,2.0,92,0.00,-SN,FEW,0.00,0.0,WeatherDisplay:10.37,2013-12-19 09:52:00,
2013-12-19 04:57:00,16.0,14.1,29.99,WNW,291,0.0,2.0,92,0.00,-SN,FEW,0.00,0.0,WeatherDisplay:10.37,2013-12-19 09:57:00,
2013-12-19 05:07:00,16.1,14.4,29.99,NNW,348,0.0,2.0,93,0.00,-SN,FEW,0.00,0.0,WeatherDisplay:10.37,2013-12-19 10:07:00,
2013-12-19 05:17:00,16.0,14.4,29.99,North,4,0.0,2.0,93,0.00,-SN,FEW,0.00,0.0,WeatherDisplay:10.37,2013-12-19 10:17:00,
2013-12-19 05:22:00,16.1,14.1,29.99,NNE,19,0.0,2.0,92,0.00,-SN,FEW,0.00,0.0,WeatherDisplay:10.37,2013-12-19 10:22:00,
2013-12-19 05:27:00,16.1,14.4,29.98,NNE,19,0.0,2.0,93,0.00,-SN,FEW,0.00,0.0,WeatherDisplay:10.37,2013-12-19 10:27:00,
2013-12-19 05:32:00,16.0,14.1,29.98,NNE,27,0.0,1.0,92,0.00,-SN,FEW,0.00,0.0,WeatherDisplay:10.37,2013-12-19 10:32:00,
2013-12-19 05:37:00,16.0,14.0,29.98,NE,35,0.0,0.0,92,0.00,-SN,FEW,0.00,0.0,WeatherDisplay:10.37,2013-12-19 10:37:00,
2013-12-19 05:42:00,15.9,14.0,29.98,NE,35,0.0,0.0,92,0.00,-SN,FEW,0.00,0.0,WeatherDisplay:10.37,2013-12-19 10:42:00,
2013-12-19 05:47:00,15.8,13.9,29.98,NE,35,0.0,0.0,92,0.00,-SN,FEW,0.00,0.0,WeatherDisplay:10.37,2013-12-19 10:47:00,
2013-12-19 05:52:00,15.7,13.8,29.98,NE,35,0.0,0.0,92,0.00,-SN,FEW,0.00,0.0,WeatherDisplay:10.37,2013-12-19 10:52:00,
2013-12-19 05:57:00,15.6,13.7,29.98,NE,35,0.0,0.0,92,0.00,-SN,FEW,0.00,0.0,WeatherDisplay:10.37,2013-12-19 10:57:00,
2013-12-19 06:07:00,15.4,13.5,29.97,NE,35,0.0,0.0,92,0.00,OVC,FEW,0.00,0.0,WeatherDisplay:10.37,2013-12-19 11:07:00,
2013-12-19 06:17:00,15.2,13.3,29.97,NE,35,0.0,0.0,92,0.00,OVC,FEW,0.00,0.0,WeatherDisplay:10.37,2013-12-19 11:17:00,
2013-12-19 06:22:00,15.1,13.2,29.97,NE,35,0.0,0.0,92,0.00,OVC,FEW,0.00,0.0,WeatherDisplay:10.37,2013-12-19 11:22:00,
2013-12-19 06:32:00,15.0,13.3,29.96,NE,35,0.0,1.0,93,0.00,OVC,FEW,0.00,0.0,WeatherDisplay:10.37,2013-12-19 11:32:00,
2013-12-19 06:37:00,15.0,13.3,29.96,NE,35,0.0,0.0,93,0.00,OVC,FEW,0.00,0.0,WeatherDisplay:10.37,2013-12-19 11:37:00,
2013-12-19 06:42:00,15.0,13.3,29.96,NE,35,0.0,0.0,93,0.00,OVC,FEW,0.00,0.0,WeatherDisplay:10.37,2013-12-19 11:42:00,
2013-12-19 06:47:00,14.9,13.2,29.96,NE,35,0.0,0.0,93,0.00,OVC,FEW,0.00,0.0,WeatherDisplay:10.37,2013-12-19 11:47:00,
2013-12-19 06:52:00,14.8,12.9,29.96,NE,35,0.0,0.0,92,0.00,OVC,FEW,0.00,0.0,WeatherDisplay:10.37,2013-12-19 11:52:00,
2013-12-19 06:57:00,14.7,12.8,29.96,NE,35,0.0,0.0,92,0.00,OVC,FEW,0.00,0.0,WeatherDisplay:10.37,2013-12-19 11:57:00,
2013-12-19 07:07:00,14.3,12.4,29.96,NE,35,0.0,0.0,92,0.00,OVC,FEW,0.00,0.0,WeatherDisplay:10.37,2013-12-19 12:07:00,
2013-12-19 07:17:00,14.2,12.5,29.96,NE,35,0.0,0.0,93,0.00,OVC,FEW,0.00,0.0,WeatherDisplay:10.37,2013-12-19 12:17:00,
2013-12-19 07:27:00,14.3,12.7,29.96,NE,35,0.0,0.0,93,0.00,OVC,FEW,0.00,0.0,WeatherDisplay:10.37,2013-12-19 12:27:00,
2013-12-19 07:32:00,14.5,12.8,29.96,NE,35,0.0,0.0,93,0.00,OVC,FEW,0.00,0.0,WeatherDisplay:10.37,2013-12-19 12:32:00,
2013-12-19 07:37:00,14.7,13.3,29.96,NE,35,0.0,0.0,94,0.00,OVC,FEW,0.00,0.0,WeatherDisplay:10.37,2013-12-19 12:37:00,
2013-12-19 07:42:00,14.8,13.4,29.95,NE,35,0.0,0.0,94,0.00,OVC,FEW,0.00,0.0,WeatherDisplay:10.37,2013-12-19 12:42:00,
2013-12-19 07:47:00,14.9,13.5,29.96,NE,35,0.0,0.0,94,0.00,OVC,FEW,0.00,5.0,WeatherDisplay:10.37,2013-12-19 12:47:00,
2013-12-19 07:52:00,14.9,13.2,29.96,NE,35,0.0,0.0,93,0.00,OVC,FEW,0.00,11.0,WeatherDisplay:10.37,2013-12-19 12:52:00,
2013-12-19 07:57:00,14.8,13.2,29.96,NE,35,0.0,0.0,93,0.00,OVC,FEW,0.00,11.0,WeatherDisplay:10.37,2013-12-19 12:57:00,
2013-12-19 08:07:00,15.0,13.4,29.97,NE,35,0.0,0.0,93,0.00,OVC,FEW,0.00,12.0,WeatherDisplay:10.37,2013-12-19 13:07:00,
2013-12-19 08:17:00,15.4,14.0,29.97,NE,35,0.0,1.0,94,0.00,OVC,FEW,0.00,12.0,WeatherDisplay:10.37,2013-12-19 13:17:00,
2013-12-19 08:22:00,15.6,14.2,29.96,NE,35,0.0,0.0,94,0.00,OVC,FEW,0.00,18.0,WeatherDisplay:10.37,2013-12-19 13:22:00,
2013-12-19 08:27:00,15.9,14.4,29.96,NE,35,0.0,0.0,94,0.00,OVC,FEW,0.00,19.0,WeatherDisplay:10.37,2013-12-19 13:27:00,
2013-12-19 08:32:00,16.1,14.6,29.96,NE,35,0.0,0.0,94,0.00,OVC,FEW,0.00,19.0,WeatherDisplay:10.37,2013-12-19 13:32:00,
2013-12-19 08:37:00,16.3,14.9,29.97,NE,35,0.0,0.0,94,0.00,OVC,FEW,0.00,21.0,WeatherDisplay:10.37,2013-12-19 13:37:00,
2013-12-19 08:42:00,16.5,15.1,29.96,NE,35,0.0,0.0,94,0.00,OVC,FEW,0.00,19.0,WeatherDisplay:10.37,2013-12-19 13:42:00,
2013-12-19 08:47:00,16.5,15.1,29.96,NE,35,0.0,0.0,94,0.00,OVC,FEW,0.00,25.0,WeatherDisplay:10.37,2013-12-19 13:47:00,
2013-12-19 08:52:00,16.5,14.8,29.97,NE,35,0.0,0.0,93,0.00,OVC,FEW,0.00,28.0,WeatherDisplay:10.37,2013-12-19 13:52:00,
2013-12-19 08:57:00,16.6,15.0,29.96,NE,35,0.0,0.0,93,0.00,OVC,FEW,0.00,32.0,WeatherDisplay:10.37,2013-12-19 13:57:00,
2013-12-19 09:07:00,17.2,15.8,29.96,NE,35,0.0,2.0,94,0.00,OVC,FEW,0.00,33.0,WeatherDisplay:10.37,2013-12-19 14:07:00,
2013-12-19 09:17:00,17.0,15.3,29.96,NE,35,0.0,1.0,93,0.00,OVC,FEW,0.00,30.0,WeatherDisplay:10.37,2013-12-19 14:17:00,
2013-12-19 09:22:00,17.1,15.4,29.96,NE,35,0.0,0.0,93,0.00,OVC,FEW,0.00,28.0,WeatherDisplay:10.37,2013-12-19 14:22:00,
2013-12-19 09:27:00,17.4,15.9,29.96,NE,35,0.0,0.0,94,0.00,OVC,FEW,0.00,25.0,WeatherDisplay:10.37,2013-12-19 14:27:00,
2013-12-19 09:32:00,17.6,16.2,29.96,NE,35,0.0,0.0,94,0.00,OVC,FEW,0.00,28.0,WeatherDisplay:10.37,2013-12-19 14:32:00,
2013-12-19 09:37:00,17.9,16.5,29.96,NE,35,0.0,0.0,94,0.00,OVC,FEW,0.00,30.0,WeatherDisplay:10.37,2013-12-19 14:37:00,
2013-12-19 09:42:00,18.1,16.4,29.95,NE,35,0.0,0.0,93,0.00,OVC,FEW,0.00,26.0,WeatherDisplay:10.37,2013-12-19 14:42:00,
2013-12-19 09:47:00,18.2,16.5,29.96,NE,35,0.0,1.0,93,0.00,OVC,FEW,0.00,32.0,WeatherDisplay:10.37,2013-12-19 14:47:00,
2013-12-19 09:52:00,18.3,16.6,29.95,NE,35,0.0,0.0,93,0.00,OVC,FEW,0.00,33.0,WeatherDisplay:10.37,2013-12-19 14:52:00,
2013-12-19 09:57:00,18.4,16.7,29.96,NE,35,0.0,0.0,93,0.00,OVC,FEW,0.00,32.0,WeatherDisplay:10.37,2013-12-19 14:57:00,
2013-12-19 10:07:00,18.7,17.0,29.95,NE,43,0.0,1.0,93,0.00,OVC,FEW,0.00,35.0,WeatherDisplay:10.37,2013-12-19 15:07:00,
2013-12-19 10:17:00,18.9,17.2,29.94,NE,43,0.0,1.0,93,0.00,OVC,FEW,0.00,44.0,WeatherDisplay:10.37,2013-12-19 15:17:00,
2013-12-19 10:22:00,19.2,17.5,29.94,NE,43,0.0,1.0,93,0.00,OVC,FEW,0.00,32.0,WeatherDisplay:10.37,2013-12-19 15:22:00,
2013-12-19 10:27:00,19.4,17.7,29.94,NE,43,0.0,1.0,93,0.00,OVC,FEW,0.00,26.0,WeatherDisplay:10.37,2013-12-19 15:27:00,
2013-12-19 10:32:00,19.4,17.5,29.94,NE,44,1.0,3.0,92,0.00,OVC,FEW,0.00,32.0,WeatherDisplay:10.37,2013-12-19 15:32:00,
2013-12-19 10:37:00,19.4,17.7,29.93,NE,45,0.0,0.0,93,0.00,OVC,FEW,0.00,28.0,WeatherDisplay:10.37,2013-12-19 15:37:00,
2013-12-19 10:42:00,19.5,17.8,29.94,NE,45,0.0,0.0,93,0.00,OVC,FEW,0.00,23.0,WeatherDisplay:10.37,2013-12-19 15:42:00,
2013-12-19 10:47:00,19.7,18.0,29.94,NE,46,0.0,1.0,93,0.00,OVC,FEW,0.00,26.0,WeatherDisplay:10.37,2013-12-19 15:47:00,
2013-12-19 10:52:00,20.1,18.6,29.93,NE,46,0.0,1.0,94,0.00,OVC,FEW,0.00,28.0,WeatherDisplay:10.37,2013-12-19 15:52:00,
2013-12-19 10:57:00,20.3,18.9,29.94,NE,46,0.0,1.0,94,0.00,OVC,FEW,0.00,23.0,WeatherDisplay:10.37,2013-12-19 15:57:00,
2013-12-19 11:07:00,20.8,19.1,29.93,NE,46,0.0,0.0,93,0.00,OVC,FEW,0.00,25.0,WeatherDisplay:10.37,2013-12-19 16:07:00,
2013-12-19 11:17:00,21.1,19.4,29.93,NE,46,0.0,1.0,93,0.00,OVC,FEW,0.00,26.0,WeatherDisplay:10.37,2013-12-19 16:17:00,
2013-12-19 11:22:00,21.2,19.5,29.93,NNE,31,0.0,3.0,93,0.00,OVC,FEW,0.00,25.0,WeatherDisplay:10.37,2013-12-19 16:22:00,
2013-12-19 11:27:00,21.3,19.6,29.93,WNW,292,0.0,1.0,93,0.00,OVC,FEW,0.00,28.0,WeatherDisplay:10.37,2013-12-19 16:27:00,
2013-12-19 11:32:00,21.5,19.8,29.92,West,267,1.0,3.0,93,0.00,OVC,FEW,0.00,37.0,WeatherDisplay:10.37,2013-12-19 16:32:00,
2013-12-19 11:37:00,21.7,20.0,29.92,West,264,0.0,2.0,93,0.00,OVC,FEW,0.00,37.0,WeatherDisplay:10.37,2013-12-19 16:37:00,
2013-12-19 11:42:00,21.9,20.2,29.92,WSW,246,1.0,4.0,93,0.00,OVC,FEW,0.00,42.0,WeatherDisplay:10.37,2013-12-19 16:42:00,
2013-12-19 11:47:00,22.1,20.4,29.92,SW,236,1.0,2.0,93,0.00,OVC,FEW,0.00,39.0,WeatherDisplay:10.37,2013-12-19 16:47:00,
2013-12-19 11:52:00,22.3,20.6,29.92,SW,219,1.0,3.0,93,0.00,OVC,FEW,0.00,40.0,WeatherDisplay:10.37,2013-12-19 16:52:00,
2013-12-19 11:57:00,22.4,20.4,29.92,South,191,1.0,4.0,92,0.00,OVC,FEW,0.00,40.0,WeatherDisplay:10.37,2013-12-19 16:57:00,
2013-12-19 12:07:00,22.6,20.6,29.92,WSW,237,0.0,6.0,92,0.00,OVC,FEW,0.00,39.0,WeatherDisplay:10.37,2013-12-19 17:07:00,
2013-12-19 12:17:00,22.7,20.7,29.92,South,191,0.0,7.0,92,0.00,OVC,FEW,0.00,35.0,WeatherDisplay:10.37,2013-12-19 17:17:00,
2013-12-19 12:22:00,22.8,20.8,29.92,South,190,1.0,4.0,92,0.00,OVC,FEW,0.00,39.0,WeatherDisplay:10.37,2013-12-19 17:22:00,
2013-12-19 12:27:00,22.9,20.9,29.91,SSW,205,3.0,7.0,92,0.00,OVC,FEW,0.00,46.0,WeatherDisplay:10.37,2013-12-19 17:27:00,
2013-12-19 12:32:00,22.9,20.7,29.91,SSW,211,1.0,6.0,91,0.00,OVC,FEW,0.00,42.0,WeatherDisplay:10.37,2013-12-19 17:32:00,
2013-12-19 12:37:00,22.9,20.7,29.91,SSW,206,2.0,8.0,91,0.00,OVC,FEW,0.00,46.0,WeatherDisplay:10.37,2013-12-19 17:37:00,
2013-12-19 12:42:00,22.9,20.7,29.91,SW,217,1.0,5.0,91,0.00,OVC,FEW,0.00,44.0,WeatherDisplay:10.37,2013-12-19 17:42:00,
2013-12-19 12:47:00,23.0,20.8,29.91,SW,215,3.0,7.0,91,0.00,OVC,FEW,0.00,42.0,WeatherDisplay:10.37,2013-12-19 17:47:00,
2013-12-19 12:52:00,23.0,20.8,29.91,SSW,212,1.0,6.0,91,0.00,OVC,FEW,0.00,39.0,WeatherDisplay:10.37,2013-12-19 17:52:00,
2013-12-19 12:57:00,23.0,20.8,29.91,SSW,211,1.0,7.0,91,0.00,OVC,FEW,0.00,33.0,WeatherDisplay:10.37,2013-12-19 17:57:00,
2013-12-19 13:07:00,23.1,21.1,29.91,SW,223,1.0,4.0,92,0.00,OVC,FEW,0.00,32.0,WeatherDisplay:10.37,2013-12-19 18:07:00,
2013-12-19 13:17:00,23.2,21.2,29.91,SW,219,1.0,6.0,92,0.00,OVC,FEW,0.00,32.0,WeatherDisplay:10.37,2013-12-19 18:17:00,
2013-12-19 13:22:00,23.3,21.3,29.90,SW,227,0.0,6.0,92,0.00,OVC,FEW,0.00,30.0,WeatherDisplay:10.37,2013-12-19 18:22:00,
2013-12-19 13:27:00,23.2,21.0,29.91,SW,214,1.0,3.0,91,0.00,OVC,FEW,0.00,28.0,WeatherDisplay:10.37,2013-12-19 18:27:00,
2013-12-19 13:32:00,23.2,21.0,29.91,SSW,202,1.0,6.0,91,0.00,OVC,FEW,0.00,28.0,WeatherDisplay:10.37,2013-12-19 18:32:00,
2013-12-19 13:37:00,23.2,21.0,29.91,SW,219,3.0,5.0,91,0.00,OVC,FEW,0.00,32.0,WeatherDisplay:10.37,2013-12-19 18:37:00,
2013-12-19 13:42:00,23.1,20.9,29.90,SW,226,2.0,5.0,91,0.00,OVC,FEW,0.00,32.0,WeatherDisplay:10.37,2013-12-19 18:42:00,
2013-12-19 13:47:00,23.1,20.9,29.91,SW,218,2.0,5.0,91,0.00,OVC,FEW,0.00,28.0,WeatherDisplay:10.37,2013-12-19 18:47:00,
2013-12-19 13:52:00,23.1,20.9,29.91,SSW,208,1.0,7.0,91,0.00,OVC,FEW,0.00,30.0,WeatherDisplay:10.37,2013-12-19 18:52:00,
2013-12-19 13:57:00,23.2,21.0,29.91,SW,222,0.0,6.0,91,0.00,OVC,FEW,0.00,32.0,WeatherDisplay:10.37,2013-12-19 18:57:00,
2013-12-19 14:07:00,23.2,21.0,29.91,SW,233,1.0,9.0,91,0.00,OVC,FEW,0.00,21.0,WeatherDisplay:10.37,2013-12-19 19:07:00,
2013-12-19 14:17:00,23.2,20.9,29.92,SW,216,0.0,5.0,91,0.00,OVC,FEW,0.00,14.0,WeatherDisplay:10.37,2013-12-19 19:17:00,
2013-12-19 14:22:00,23.2,20.9,29.91,SW,229,1.0,3.0,91,0.00,OVC,FEW,0.00,14.0,WeatherDisplay:10.37,2013-12-19 19:22:00,
2013-12-19 14:27:00,23.1,20.9,29.92,SW,218,0.0,2.0,91,0.00,OVC,FEW,0.00,14.0,WeatherDisplay:10.37,2013-12-19 19:27:00,
2013-12-19 14:32:00,23.0,20.8,29.92,SW,234,0.0,3.0,91,0.00,OVC,FEW,0.00,14.0,WeatherDisplay:10.37,2013-12-19 19:32:00,
2013-12-19 14:37:00,23.0,20.8,29.92,SW,229,0.0,2.0,91,0.00,OVC,FEW,0.00,11.0,WeatherDisplay:10.37,2013-12-19 19:37:00,
2013-12-19 14:42:00,23.0,20.8,29.92,SW,229,0.0,4.0,91,0.00,OVC,FEW,0.00,11.0,WeatherDisplay:10.37,2013-12-19 19:42:00,
2013-12-19 14:47:00,23.0,21.0,29.93,SW,221,0.0,4.0,92,0.00,OVC,FEW,0.00,11.0,WeatherDisplay:10.37,2013-12-19 19:47:00,
2013-12-19 14:52:00,22.9,20.9,29.93,SW,219,1.0,6.0,92,0.00,OVC,FEW,0.00,9.0,WeatherDisplay:10.37,2013-12-19 19:52:00,
2013-12-19 14:57:00,22.9,20.9,29.92,SSW,211,1.0,4.0,92,0.00,OVC,FEW,0.00,9.0,WeatherDisplay:10.37,2013-12-19 19:57:00,
2013-12-19 15:07:00,22.8,21.1,29.92,SSW,198,0.0,5.0,93,0.00,OVC,FEW,0.00,7.0,WeatherDisplay:10.37,2013-12-19 20:07:00,
2013-12-19 15:17:00,22.7,20.9,29.93,SSW,196,0.0,3.0,93,0.00,OVC,FEW,0.00,5.0,WeatherDisplay:10.37,2013-12-19 20:17:00,
2013-12-19 15:22:00,22.6,20.9,29.93,SSW,198,1.0,3.0,93,0.00,OVC,FEW,0.00,5.0,WeatherDisplay:10.37,2013-12-19 20:22:00,
2013-12-19 15:27:00,22.6,20.9,29.93,SSW,208,0.0,4.0,93,0.00,OVC,FEW,0.00,5.0,WeatherDisplay:10.37,2013-12-19 20:27:00,
2013-12-19 15:32:00,22.6,20.9,29.93,SW,214,0.0,4.0,93,0.00,OVC,FEW,0.00,0.0,WeatherDisplay:10.37,2013-12-19 20:32:00,
2013-12-19 15:37:00,22.6,20.9,29.94,SW,226,1.0,4.0,93,0.00,OVC,FEW,0.00,0.0,WeatherDisplay:10.37,2013-12-19 20:37:00,
2013-12-19 15:42:00,22.5,20.8,29.94,WSW,254,0.0,3.0,93,0.00,OVC,FEW,0.00,0.0,WeatherDisplay:10.37,2013-12-19 20:42:00,
2013-12-19 15:47:00,22.5,20.8,29.95,SW,234,1.0,3.0,93,0.00,OVC,FEW,0.00,0.0,WeatherDisplay:10.37,2013-12-19 20:47:00,
2013-12-19 15:52:00,22.5,20.8,29.94,SW,231,1.0,4.0,93,0.00,OVC,FEW,0.00,0.0,WeatherDisplay:10.37,2013-12-19 20:52:00,
2013-12-19 15:57:00,22.5,20.7,29.94,SW,220,1.0,5.0,93,0.00,OVC,FEW,0.00,0.0,WeatherDisplay:10.37,2013-12-19 20:57:00,
2013-12-19 16:07:00,22.4,20.7,29.94,SW,220,0.0,5.0,93,0.00,OVC,FEW,0.00,0.0,WeatherDisplay:10.37,2013-12-19 21:07:00,
2013-12-19 16:17:00,22.3,20.6,29.95,SW,227,0.0,4.0,93,0.00,OVC,FEW,0.00,0.0,WeatherDisplay:10.37,2013-12-19 21:17:00,
2013-12-19 16:22:00,22.3,20.6,29.95,SW,225,0.0,1.0,93,0.00,OVC,FEW,0.00,0.0,WeatherDisplay:10.37,2013-12-19 21:22:00,
2013-12-19 16:27:00,22.3,20.6,29.95,SW,225,0.0,4.0,93,0.00,OVC,FEW,0.00,0.0,WeatherDisplay:10.37,2013-12-19 21:27:00,
2013-12-19 16:32:00,22.2,20.8,29.95,WSW,237,1.0,4.0,94,0.00,OVC,FEW,0.00,0.0,WeatherDisplay:10.37,2013-12-19 21:32:00,
2013-12-19 16:42:00,22.2,20.7,29.96,West,262,0.0,2.0,94,0.00,OVC,FEW,0.00,0.0,WeatherDisplay:10.37,2013-12-19 21:42:00,
2013-12-19 16:47:00,22.2,20.7,29.96,WSW,250,0.0,4.0,94,0.00,OVC,FEW,0.00,0.0,WeatherDisplay:10.37,2013-12-19 21:47:00,
2013-12-19 16:52:00,22.2,20.7,29.97,SW,232,0.0,4.0,94,0.00,OVC,FEW,0.00,0.0,WeatherDisplay:10.37,2013-12-19 21:52:00,
2013-12-19 16:57:00,22.3,20.8,29.97,SW,231,0.0,4.0,94,0.00,OVC,FEW,0.00,0.0,WeatherDisplay:10.37,2013-12-19 21:57:00,
2013-12-19 17:07:00,22.3,20.8,29.98,SSW,200,0.0,3.0,94,0.00,OVC,FEW,0.00,0.0,WeatherDisplay:10.37,2013-12-19 22:07:00,
2013-12-19 17:17:00,22.4,20.9,29.98,SW,228,1.0,4.0,94,0.00,OVC,FEW,0.00,0.0,WeatherDisplay:10.37,2013-12-19 22:17:00,
2013-12-19 17:22:00,22.4,20.9,29.98,SW,217,0.0,4.0,94,0.00,OVC,FEW,0.00,0.0,WeatherDisplay:10.37,2013-12-19 22:22:00,
2013-12-19 17:27:00,22.5,21.0,29.99,WSW,242,1.0,5.0,94,0.00,OVC,FEW,0.00,0.0,WeatherDisplay:10.37,2013-12-19 22:27:00,
2013-12-19 17:32:00,22.5,21.0,29.99,SW,236,1.0,8.0,94,0.00,OVC,FEW,0.00,0.0,WeatherDisplay:10.37,2013-12-19 22:32:00,
2013-12-19 17:37:00,22.6,21.1,29.99,WSW,243,0.0,6.0,94,0.00,OVC,FEW,0.00,0.0,WeatherDisplay:10.37,2013-12-19 22:37:00,
2013-12-19 17:42:00,22.7,21.3,29.99,SSW,192,1.0,5.0,94,0.00,OVC,FEW,0.00,0.0,WeatherDisplay:10.37,2013-12-19 22:42:00,
2013-12-19 17:47:00,22.9,21.4,29.99,NNE,20,1.0,5.0,94,0.00,OVC,FEW,0.00,0.0,WeatherDisplay:10.37,2013-12-19 22:47:00,
2013-12-19 17:52:00,22.9,21.4,29.99,NNW,343,2.0,4.0,94,0.00,OVC,FEW,0.00,0.0,WeatherDisplay:10.37,2013-12-19 22:52:00,
2013-12-19 17:57:00,23.1,21.6,29.99,NW,320,2.0,5.0,94,0.00,OVC,FEW,0.00,0.0,WeatherDisplay:10.37,2013-12-19 22:57:00,
2013-12-19 18:07:00,23.3,21.8,29.99,SSW,206,1.0,9.0,94,0.00,OVC,FEW,0.00,0.0,WeatherDisplay:10.37,2013-12-19 23:07:00,
2013-12-19 18:17:00,23.5,22.0,29.99,South,186,2.0,9.0,94,0.00,OVC,FEW,0.00,0.0,WeatherDisplay:10.37,2013-12-19 23:17:00,
2013-12-19 18:22:00,23.5,22.0,30.00,WSW,242,2.0,6.0,94,0.00,OVC,FEW,0.00,0.0,WeatherDisplay:10.37,2013-12-19 23:22:00,
2013-12-19 18:27:00,23.5,22.0,30.00,WSW,251,0.0,4.0,94,0.00,OVC,FEW,0.00,0.0,WeatherDisplay:10.37,2013-12-19 23:27:00,
2013-12-19 18:32:00,23.5,22.0,30.00,SSW,200,1.0,5.0,94,0.00,OVC,FEW,0.00,0.0,WeatherDisplay:10.37,2013-12-19 23:32:00,
2013-12-19 18:37:00,23.5,22.1,30.00,West,270,2.0,5.0,94,0.00,OVC,FEW,0.00,0.0,WeatherDisplay:10.37,2013-12-19 23:37:00,
2013-12-19 18:42:00,23.6,22.1,30.00,NNW,338,0.0,3.0,94,0.00,OVC,FEW,0.00,0.0,WeatherDisplay:10.37,2013-12-19 23:42:00,
2013-12-19 18:47:00,23.6,22.1,30.01,NNW,345,0.0,1.0,94,0.00,OVC,FEW,0.00,0.0,WeatherDisplay:10.37,2013-12-19 23:47:00,
2013-12-19 18:52:00,23.6,22.1,30.00,West,259,0.0,1.0,94,0.00,OVC,FEW,0.00,0.0,WeatherDisplay:10.37,2013-12-19 23:52:00,
2013-12-19 18:57:00,23.6,22.1,30.00,SW,228,0.0,4.0,94,0.00,OVC,FEW,0.00,0.0,WeatherDisplay:10.37,2013-12-19 23:57:00,
2013-12-19 19:07:00,23.7,22.2,30.01,NNE,29,0.0,7.0,94,0.00,OVC,FEW,0.00,0.0,WeatherDisplay:10.37,2013-12-20 00:07:00,
2013-12-19 19:17:00,23.8,22.3,30.01,SW,225,2.0,6.0,94,0.00,OVC,FEW,0.00,0.0,WeatherDisplay:10.37,2013-12-20 00:17:00,
2013-12-19 19:22:00,23.9,22.4,30.01,SSW,212,2.0,4.0,94,0.00,OVC,FEW,0.00,0.0,WeatherDisplay:10.37,2013-12-20 00:22:00,
2013-12-19 19:27:00,23.9,22.4,30.01,SSW,197,2.0,5.0,94,0.00,OVC,FEW,0.00,0.0,WeatherDisplay:10.37,2013-12-20 00:27:00,
2013-12-19 19:32:00,24.0,22.5,30.01,SW,226,0.0,10.0,94,0.00,OVC,FEW,0.00,0.0,WeatherDisplay:10.37,2013-12-20 00:32:00,
2013-12-19 19:37:00,24.1,22.6,30.01,SW,228,2.0,8.0,94,0.00,OVC,FEW,0.00,0.0,WeatherDisplay:10.37,2013-12-20 00:37:00,
2013-12-19 19:42:00,24.1,22.6,30.01,WSW,237,3.0,8.0,94,0.00,OVC,FEW,0.00,0.0,WeatherDisplay:10.37,2013-12-20 00:42:00,
2013-12-19 19:47:00,24.1,22.6,30.01,SW,215,1.0,6.0,94,0.00,OVC,FEW,0.00,0.0,WeatherDisplay:10.37,2013-12-20 00:47:00,
2013-12-19 19:52:00,24.1,22.4,30.01,South,182,1.0,3.0,93,0.00,OVC,FEW,0.00,0.0,WeatherDisplay:10.37,2013-12-20 00:52:00,
2013-12-19 19:57:00,24.1,22.4,30.02,South,190,0.0,2.0,93,0.00,OVC,FEW,0.00,0.0,WeatherDisplay:10.37,2013-12-20 00:57:00,
2013-12-19 20:07:00,24.1,22.7,30.02,SW,218,2.0,6.0,94,0.00,OVC,FEW,0.00,0.0,WeatherDisplay:10.37,2013-12-20 01:07:00,
2013-12-19 20:17:00,24.2,22.7,30.03,WNW,283,0.0,3.0,94,0.00,OVC,FEW,0.00,0.0,WeatherDisplay:10.37,2013-12-20 01:17:00,
2013-12-19 20:22:00,24.2,22.7,30.03,NNW,340,0.0,1.0,94,0.00,OVC,FEW,0.00,0.0,WeatherDisplay:10.37,2013-12-20 01:22:00,
2013-12-19 20:27:00,24.2,22.7,30.03,NE,47,0.0,2.0,94,0.00,OVC,FEW,0.00,0.0,WeatherDisplay:10.37,2013-12-20 01:27:00,
2013-12-19 20:32:00,24.2,22.7,30.02,East,86,0.0,1.0,94,0.00,OVC,FEW,0.00,0.0,WeatherDisplay:10.37,2013-12-20 01:32:00,
2013-12-19 20:37:00,24.3,22.8,30.02,East,87,0.0,2.0,94,0.00,OVC,FEW,0.00,0.0,WeatherDisplay:10.37,2013-12-20 01:37:00,
2013-12-19 20:42:00,24.3,22.8,30.03,WNW,284,1.0,6.0,94,0.00,OVC,FEW,0.00,0.0,WeatherDisplay:10.37,2013-12-20 01:42:00,
2013-12-19 20:47:00,24.3,22.8,30.03,WNW,296,0.0,3.0,94,0.00,OVC,FEW,0.00,0.0,WeatherDisplay:10.37,2013-12-20 01:47:00,
2013-12-19 20:52:00,24.3,22.8,30.03,NW,311,0.0,3.0,94,0.00,OVC,FEW,0.00,0.0,WeatherDisplay:10.37,2013-12-20 01:52:00,
2013-12-19 20:57:00,24.3,22.8,30.03,NW,325,1.0,5.0,94,0.00,OVC,FEW,0.00,0.0,WeatherDisplay:10.37,2013-12-20 01:57:00,
2013-12-19 21:07:00,24.4,22.9,30.04,West,266,0.0,3.0,94,0.00,OVC,FEW,0.00,0.0,WeatherDisplay:10.37,2013-12-20 02:07:00,
2013-12-19 21:17:00,24.4,22.9,30.03,West,261,0.0,2.0,94,0.00,OVC,FEW,0.00,0.0,WeatherDisplay:10.37,2013-12-20 02:17:00,
2013-12-19 21:22:00,24.4,22.9,30.03,West,262,0.0,1.0,94,0.00,OVC,FEW,0.00,0.0,WeatherDisplay:10.37,2013-12-20 02:22:00,
2013-12-19 21:27:00,24.4,22.9,30.04,West,280,2.0,6.0,94,0.00,OVC,FEW,0.00,0.0,WeatherDisplay:10.37,2013-12-20 02:27:00,
2013-12-19 21:32:00,24.4,22.9,30.04,WNW,299,0.0,3.0,94,0.00,OVC,FEW,0.00,0.0,WeatherDisplay:10.37,2013-12-20 02:32:00,
2013-12-19 21:37:00,24.5,23.0,30.05,NNW,333,1.0,3.0,94,0.00,OVC,FEW,0.00,0.0,WeatherDisplay:10.37,2013-12-20 02:37:00,
2013-12-19 21:42:00,24.5,23.0,30.05,NNE,23,0.0,2.0,94,0.00,OVC,FEW,0.00,0.0,WeatherDisplay:10.37,2013-12-20 02:42:00,
2013-12-19 21:47:00,24.6,23.1,30.06,NNE,28,1.0,2.0,94,0.00,OVC,FEW,0.00,0.0,WeatherDisplay:10.37,2013-12-20 02:47:00,
2013-12-19 21:52:00,24.6,23.1,30.06,North,357,0.0,2.0,94,0.00,OVC,FEW,0.00,0.0,WeatherDisplay:10.37,2013-12-20 02:52:00,
2013-12-19 21:57:00,24.6,23.1,30.06,NNW,340,0.0,3.0,94,0.00,OVC,FEW,0.00,0.0,WeatherDisplay:10.37,2013-12-20 02:57:00,
2013-12-19 22:07:00,24.7,23.2,30.06,SSE,148,1.0,5.0,94,0.00,OVC,FEW,0.00,0.0,WeatherDisplay:10.37,2013-12-20 03:07:00,
2013-12-19 22:17:00,24.8,23.1,30.07,SSW,193,2.0,6.0,93,0.00,OVC,FEW,0.00,0.0,WeatherDisplay:10.37,2013-12-20 03:17:00,
2013-12-19 22:22:00,24.9,23.2,30.07,SSW,210,0.0,3.0,93,0.00,OVC,FEW,0.00,0.0,WeatherDisplay:10.37,2013-12-20 03:22:00,
2013-12-19 22:27:00,24.9,23.2,30.07,WSW,248,1.0,4.0,93,0.00,OVC,FEW,0.00,0.0,WeatherDisplay:10.37,2013-12-20 03:27:00,
2013-12-19 22:32:00,24.9,23.2,30.07,WSW,240,1.0,4.0,93,0.00,OVC,FEW,0.00,0.0,WeatherDisplay:10.37,2013-12-20 03:32:00,
2013-12-19 22:37:00,24.9,23.4,30.07,SW,223,0.0,3.0,94,0.00,OVC,FEW,0.00,0.0,WeatherDisplay:10.37,2013-12-20 03:37:00,
2013-12-19 22:42:00,24.9,23.4,30.07,SW,217,0.0,1.0,94,0.00,OVC,FEW,0.00,0.0,WeatherDisplay:10.37,2013-12-20 03:42:00,
2013-12-19 22:47:00,24.9,23.4,30.08,SW,219,0.0,1.0,94,0.00,OVC,FEW,0.00,0.0,WeatherDisplay:10.37,2013-12-20 03:47:00,
2013-12-19 22:52:00,24.8,23.3,30.08,SW,219,0.0,2.0,94,0.00,OVC,FEW,0.00,0.0,WeatherDisplay:10.37,2013-12-20 03:52:00,
2013-12-19 22:57:00,24.9,23.4,30.08,SW,219,0.0,2.0,94,0.00,OVC,FEW,0.00,0.0,WeatherDisplay:10.37,2013-12-20 03:57:00,
2013-12-19 23:07:00,24.9,23.4,30.08,SW,219,0.0,3.0,94,0.00,OVC,FEW,0.00,0.0,WeatherDisplay:10.37,2013-12-20 04:07:00,
2013-12-19 23:17:00,25.0,23.5,30.08,West,271,0.0,3.0,94,0.00,OVC,FEW,0.00,0.0,WeatherDisplay:10.37,2013-12-20 04:17:00,
2013-12-19 23:22:00,25.0,23.5,30.08,SW,231,0.0,3.0,94,0.00,OVC,FEW,0.00,0.0,WeatherDisplay:10.37,2013-12-20 04:22:00,
2013-12-19 23:32:00,25.0,23.5,30.08,SW,216,0.0,3.0,94,0.00,OVC,FEW,0.00,0.0,WeatherDisplay:10.37,2013-12-20 04:32:00,
2013-12-19 23:42:00,25.0,23.5,30.08,South,183,0.0,2.0,94,0.00,OVC,FEW,0.00,0.0,WeatherDisplay:10.37,2013-12-20 04:42:00,
2013-12-19 23:47:00,24.9,23.4,30.08,SSW,209,0.0,5.0,94,0.00,OVC,FEW,0.00,0.0,WeatherDisplay:10.37,2013-12-20 04:47:00,
2013-12-19 23:52:00,24.9,23.4,30.08,South,178,0.0,3.0,94,0.00,OVC,FEW,0.00,0.0,WeatherDisplay:10.37,2013-12-20 04:52:00,
2013-12-19 23:57:00,24.9,23.5,30.08,ESE,111,0.0,2.0,94,0.00,OVC,FEW,0.00,0.0,WeatherDisplay:10.37,2013-12-20 04:57:00,